Location: ????????
(54.9045°N, 39.1041°E)
Time: 02:14:16
(UTC+00:00)

NOSS 3-4 (C) - Pass Details

Date: 14 April 2024
Orbit: 806 x 1406 km, 63.4° (Epoch: 23 May)

Event Time Altitude Azimuth Distance (km) Brightness Sun altitude
Exits shadow 00:17:06 25° 235° (SW) 1,662 4.1 -16.1°
Maximum altitude 00:20:34 82° 321° (NW) 907 3.3 -15.7°
Drops below altitude 10° 00:26:56 10° 51° (NE) 2,752 7.3 -15.1°
Sets 00:29:42 0° 52° (NE) 3,795 8.5 -14.8°
